Terminal Aerodrome Forecast
Issued by NWS Green Bay, WI

Home | Current Version | Previous Version | Graphics & Text | Print | Product List | Glossary On
Versions: 1 2 3 4 5 6 7 8 9 10 11 12 13 14 15 16 17 18 19 20 21 22
000
FTUS43 KGRB 221131
TAFGRB
TAF
KGRB 221131Z 2212/2312 30005KT P6SM SCT035
      TEMPO 2212/2215 BKN035
     FM221600 24005KT P6SM SCT250
     FM230100 22006KT P6SM SCT060 OVC080 PROB30 2303/2309 3SM
      -FZRASN BKN030 OVC050
     FM231000 22005KT P6SM BKN035=

USA.gov is the U.S. government's official web portal to all federal, state and local government web resources and services.